CZ-6A R/B, 58200

Orbit data source: Space-Track

CZ-6A R/B, 58200 is space debris in SSO originally from a launch on Tue, 31 Oct 2023 UTC launched from the Taiyaun Space Center, China (TSC). Debris objects in space refer to the collection of defunct objects orbiting the Earth. Examples of debris include non-operational satellites, rocket bodies, and fragments generated from explosions, collisions, or faulty payload assembly.

Loading next visibility...
Identifier
58200, 2023-168B
Orbit
SSO
Country
Flag of CNCN / PRC
Related business
Manufacturer
SAST
Mission
Spacecraft
Bus & Motor
CZ-6A STAGE 2, YF-115
Mass
~6,000 kg wet, ~6,000 kg dry
Launch date (UTC)
2023-10-31 (2 years ago)
Launch vehicle
Unknown
Launch site
Taiyaun Space Center, China (TSC)
Object type
Payload
Rocket body
Debris
Shape & HBR
Unknown shape, 5.5 m
Radar Cross Section
Large (>1 m²)

Expand to show TLE details & history
Last TLE update: 6 hours ago

TLE from 6 hours ago
0 CZ-6A R/B
1 58200U 23168B   25308.81451236  .00005408  00000-0  28297-3 0  9991
2 58200  97.7696 337.0444 0065015  49.2395 311.4454 15.14439044110857
Epoch: 2025-11-04T19:32Z
TLE epoch observation values (Epoch: 2025-11-04T19:32:53.867Z)
Latitude
-0.00003°
Longitude
-0.47617°
Altitude
496.216 km
Speed
7.633 km/s
True Right ascension
22h 28m 10s
True Declination
0° 00' 00"
Sunlit
Object was in full shadow at epoch
Visualization orbit readout
Latitude
Unknown
Longitude
Unknown
Altitude
Unknown
Speed
Unknown
Apparent Right ascension
Unknown
Apparent Declination
Unknown
Sunlit
N/A
Visualization observer readout
Local Sidereal Time
21:23:53
Azimuth
Unknown
Elevation
Unknown
Doppler factor
Unknown
Orbital elements
Apogee altitude
564.517 km
Perigee altitude
474.825 km
Semi-major axis
6,897.808 km
Eccentricity
0.0065
Inclination
97.7696°
RAAN
337.0444°
Arg. of periapsis
49.2395°
True anomaly
310.88393°
Mean anomaly
311.4454°
Eccentric anomaly
311.16497°
Mean motion
3.78858 °/min
Orbital period
95.02 mins
BSTAR
0.00028297
Loading maneuver chart data...
Computing Atmospheric mass density...
Loading historical data...
Loading historical data...
Loading historical data...
Loading historical data...
Loading historical data...
Loading historical data...
Loading historical data...
Other satellites on launch #168 in the year 2023 (2023-10-31 UTC)

Documentation

Showing up to 5 results
|